TimeCDT,TemperatureF,Dew PointF,Humidity,Sea Level PressureIn,VisibilityMPH,Wind Direction,Wind SpeedMPH,Gust SpeedMPH,PrecipitationIn,Events,Conditions,WindDirDegrees,DateUTC
12:05 AM,57.2,53.6,88,30.02,2.0,SSE,10.4,-,N/A,,Overcast,150,2013-06-05 05:05:00
12:25 AM,57.2,53.6,88,30.02,2.0,SE,9.2,-,N/A,,Overcast,140,2013-06-05 05:25:00
12:45 AM,57.2,53.6,88,30.04,2.0,South,5.8,-,N/A,,Overcast,170,2013-06-05 05:45:00
1:05 AM,57.2,53.6,88,30.04,2.5,South,4.6,-,N/A,,Overcast,180,2013-06-05 06:05:00
1:25 AM,57.2,53.6,88,30.04,2.0,SSW,5.8,-,N/A,,Overcast,200,2013-06-05 06:25:00
1:45 AM,57.2,53.6,88,30.03,1.2,SW,3.5,-,N/A,,Overcast,220,2013-06-05 06:45:00
2:05 AM,57.2,53.6,88,30.03,1.0,SSW,3.5,-,N/A,,Overcast,210,2013-06-05 07:05:00
2:25 AM,57.2,55.4,94,30.03,1.5,Calm,Calm,-,N/A,,Overcast,0,2013-06-05 07:25:00
2:45 AM,57.2,55.4,94,30.03,1.5,Calm,Calm,-,N/A,,Overcast,0,2013-06-05 07:45:00
3:05 AM,57.2,55.4,94,30.02,1.0,Calm,Calm,-,N/A,,Overcast,0,2013-06-05 08:05:00
3:25 AM,57.2,55.4,94,30.01,0.8,SSE,3.5,-,N/A,,Overcast,150,2013-06-05 08:25:00
3:45 AM,57.2,55.4,94,30.01,0.5,South,3.5,-,N/A,,Overcast,190,2013-06-05 08:45:00
4:05 AM,57.2,55.4,94,30.01,0.5,Calm,Calm,-,N/A,,Overcast,0,2013-06-05 09:05:00
4:25 AM,57.2,55.4,94,30.02,0.8,SSW,3.5,-,N/A,,Overcast,200,2013-06-05 09:25:00
4:45 AM,57.2,55.4,94,30.03,0.8,SW,3.5,-,N/A,,Overcast,220,2013-06-05 09:45:00
5:06 AM,57.2,55.4,94,30.02,0.8,Calm,Calm,-,N/A,,Overcast,0,2013-06-05 10:06:00
5:25 AM,57.2,55.4,94,30.02,1.8,Calm,Calm,-,N/A,,Overcast,0,2013-06-05 10:25:00
5:45 AM,57.2,55.4,94,30.01,1.2,SW,3.5,-,N/A,,Overcast,230,2013-06-05 10:45:00
6:05 AM,57.2,55.4,94,30.02,2.0,West,6.9,-,N/A,,Overcast,270,2013-06-05 11:05:00
6:25 AM,57.2,55.4,94,30.00,4.0,WNW,6.9,-,N/A,,Overcast,290,2013-06-05 11:25:00
6:45 AM,57.2,51.8,82,30.00,7.0,WNW,5.8,-,N/A,,Overcast,300,2013-06-05 11:45:00
7:05 AM,57.2,50.0,77,30.00,10.0,WNW,6.9,-,N/A,,Mostly Cloudy,290,2013-06-05 12:05:00
7:25 AM,55.4,50.0,82,30.00,10.0,WNW,6.9,-,N/A,,Scattered Clouds,300,2013-06-05 12:25:00
7:45 AM,57.2,50.0,77,30.00,10.0,WNW,9.2,-,N/A,,Scattered Clouds,300,2013-06-05 12:45:00
8:05 AM,57.2,50.0,77,30.00,10.0,NW,12.7,-,N/A,,Clear,310,2013-06-05 13:05:00
8:25 AM,59.0,50.0,72,29.98,10.0,NNW,12.7,-,N/A,,Clear,330,2013-06-05 13:25:00
8:45 AM,59.0,50.0,72,29.99,10.0,NW,12.7,-,N/A,,Clear,320,2013-06-05 13:45:00
9:05 AM,59.0,50.0,72,30.01,10.0,WNW,9.2,-,N/A,,Clear,290,2013-06-05 14:05:00
9:25 AM,60.8,50.0,68,30.01,10.0,NW,6.9,17.3,N/A,,Scattered Clouds,310,2013-06-05 14:25:00
9:35 AM,59.0,46.4,63,30.02,10.0,NW,9.2,-,N/A,,Scattered Clouds,310,2013-06-05 14:35:00
9:53 AM,60.8,48.2,63,30.02,10.0,WNW,12.7,16.1,N/A,,Scattered Clouds,290,2013-06-05 14:53:00
10:12 AM,59.0,46.4,63,30.02,10.0,WNW,8.1,-,N/A,,Mostly Cloudy,290,2013-06-05 15:12:00
10:32 AM,59.0,46.4,63,30.02,10.0,WNW,11.5,-,N/A,,Overcast,300,2013-06-05 15:32:00
10:53 AM,62.6,46.4,55,30.02,10.0,West,8.1,-,N/A,,Mostly Cloudy,270,2013-06-05 15:53:00
11:12 AM,60.8,46.4,59,30.02,10.0,West,8.1,-,N/A,,Overcast,280,2013-06-05 16:12:00
11:32 AM,60.8,46.4,59,30.02,10.0,West,8.1,-,N/A,,Overcast,260,2013-06-05 16:32:00
11:52 AM,62.6,46.4,55,30.01,10.0,West,6.9,-,N/A,,Overcast,270,2013-06-05 16:52:00
12:12 PM,60.8,46.4,59,30.01,10.0,West,6.9,-,N/A,,Overcast,270,2013-06-05 17:12:00
12:34 PM,60.8,46.4,59,30.01,10.0,WNW,9.2,-,N/A,,Overcast,290,2013-06-05 17:34:00
12:54 PM,62.6,46.4,55,30.01,10.0,West,8.1,-,N/A,,Overcast,270,2013-06-05 17:54:00
1:14 PM,62.6,46.4,55,30.00,10.0,WSW,6.9,-,N/A,,Overcast,250,2013-06-05 18:14:00
1:34 PM,60.8,46.4,59,30.00,10.0,WSW,9.2,-,N/A,,Overcast,240,2013-06-05 18:34:00
1:54 PM,62.6,46.4,55,30.00,10.0,WSW,9.2,-,0.02,,Overcast,250,2013-06-05 18:54:00
2:14 PM,60.8,46.4,59,30.00,10.0,West,9.2,-,N/A,,Overcast,280,2013-06-05 19:14:00
2:34 PM,62.6,48.2,59,29.99,10.0,West,10.4,-,N/A,,Overcast,270,2013-06-05 19:34:00
2:54 PM,62.6,48.2,59,29.99,10.0,West,11.5,-,N/A,,Overcast,280,2013-06-05 19:54:00
3:14 PM,62.6,48.2,59,29.98,10.0,West,11.5,16.1,N/A,,Overcast,260,2013-06-05 20:14:00
3:34 PM,62.6,50.0,63,29.98,10.0,WNW,12.7,18.4,N/A,,Overcast,290,2013-06-05 20:34:00
3:54 PM,62.6,48.2,59,29.97,10.0,WNW,11.5,-,N/A,,Overcast,290,2013-06-05 20:54:00
4:14 PM,62.6,48.2,59,29.97,10.0,West,8.1,-,N/A,,Overcast,270,2013-06-05 21:14:00
4:33 PM,64.4,46.4,52,29.96,10.0,West,9.2,-,N/A,,Scattered Clouds,270,2013-06-05 21:33:00
4:54 PM,64.4,44.6,49,29.96,10.0,WNW,12.7,19.6,N/A,,Mostly Cloudy,300,2013-06-05 21:54:00
5:14 PM,64.4,46.4,52,29.96,10.0,West,8.1,-,N/A,,Mostly Cloudy,280,2013-06-05 22:14:00
5:33 PM,64.4,46.4,52,29.96,10.0,WNW,13.8,21.9,N/A,,Overcast,290,2013-06-05 22:33:00
5:54 PM,64.4,46.4,52,29.95,10.0,NW,12.7,-,N/A,,Mostly Cloudy,310,2013-06-05 22:54:00
6:14 PM,64.4,46.4,52,29.96,10.0,WNW,13.8,-,N/A,,Overcast,300,2013-06-05 23:14:00
6:34 PM,62.6,48.2,59,29.96,10.0,WNW,9.2,-,N/A,,Overcast,290,2013-06-05 23:34:00
6:54 PM,62.6,46.4,55,29.96,10.0,WNW,11.5,-,N/A,,Overcast,290,2013-06-05 23:54:00
7:14 PM,62.6,48.2,59,29.96,10.0,WNW,12.7,-,N/A,,Overcast,300,2013-06-06 00:14:00
7:34 PM,62.6,50.0,63,29.97,10.0,WNW,10.4,-,N/A,,Overcast,300,2013-06-06 00:34:00
7:54 PM,62.6,50.0,63,29.97,10.0,NW,8.1,-,N/A,,Overcast,310,2013-06-06 00:54:00
8:13 PM,62.6,46.4,55,29.97,10.0,NW,9.2,-,N/A,,Overcast,310,2013-06-06 01:13:00
8:34 PM,60.8,48.2,63,29.97,10.0,NW,6.9,-,N/A,,Overcast,310,2013-06-06 01:34:00
8:54 PM,60.8,48.2,63,29.97,10.0,NW,6.9,-,N/A,,Overcast,310,2013-06-06 01:54:00
9:13 PM,60.8,48.2,63,29.97,10.0,NW,6.9,-,N/A,,Overcast,310,2013-06-06 02:13:00
9:34 PM,60.8,50.0,68,29.97,10.0,NW,5.8,-,N/A,,Overcast,310,2013-06-06 02:34:00
9:53 PM,59.0,50.0,72,29.98,10.0,NW,5.8,-,N/A,,Overcast,310,2013-06-06 02:53:00
10:14 PM,59.0,50.0,72,29.98,10.0,NW,5.8,-,N/A,,Overcast,310,2013-06-06 03:14:00
10:34 PM,59.0,50.0,72,29.98,10.0,NW,5.8,-,N/A,,Overcast,310,2013-06-06 03:34:00
10:53 PM,59.0,50.0,72,29.98,10.0,NW,4.6,-,N/A,,Overcast,310,2013-06-06 03:53:00
11:14 PM,59.0,50.0,72,29.98,10.0,NW,3.5,-,N/A,,Overcast,310,2013-06-06 04:14:00
11:34 PM,59.0,51.8,77,29.98,10.0,NNW,5.8,-,N/A,,Overcast,330,2013-06-06 04:34:00
11:53 PM,57.2,51.8,82,29.98,10.0,NNW,5.8,-,N/A,,Overcast,330,2013-06-06 04:53:00